Simultaneous Nadir Overpasses (SNOs) Predictions

Prediction of SNOs between NOAA-20 and NOAA-19 Satellite Orbit:

Table of predicted SNOs for the next 14.0 days since TLE Epoch: 7/22/2022
Index Date (NOAA-20) Time (NOAA-20) Lat,Lon (NOAA-20) SZA (NOAA-20 ) Date (NOAA-19) Time (NOAA-19) Lat,Lon (NOAA-19) SZA (NOAA-19 ) Distance(km) Time Diff (sec)
1 08/01/2022 15:08:18 76.50, -65.25 59.40 08/01/2022 15:07:06 76.50, -66.43 59.53 30.73 72
2 08/01/2022 15:59:06 -76.66, 101.47 120.40 08/01/2022 15:58:06 -76.68, 101.54 120.36 3.19 60
3 08/01/2022 16:49:52 76.69, -91.33 59.65 08/01/2022 16:49:02 76.67, -91.25 59.64 2.98 50
4 08/01/2022 17:40:36 -76.66, 76.07 120.38 08/01/2022 17:40:06 -76.67, 76.02 120.35 1.82 30
5 08/01/2022 18:31:22 76.69,-116.73 59.67 08/01/2022 18:31:01 76.70,-116.61 59.68 3.23 21
6 08/01/2022 19:22:06 -76.67, 50.67 120.35 08/01/2022 19:22:05 -76.71, 50.67 120.31 4.14 1
7 08/01/2022 20:12:52 76.70,-142.13 59.70 08/01/2022 20:13:01 76.69,-142.14 59.69 1.01 9
8 08/01/2022 21:03:37 -76.72, 25.10 120.27 08/01/2022 21:04:05 -76.70, 25.14 120.30 2.62 28
9 08/01/2022 21:54:22 76.71,-167.53 59.73 08/01/2022 21:55:00 76.73,-167.49 59.73 2.35 38
10 08/01/2022 22:45:07 -76.73, -0.30 120.24 08/01/2022 22:46:04 -76.74, -0.21 120.26 2.45 57
11 08/01/2022 23:35:52 76.72, 167.06 59.75 08/01/2022 23:37:00 76.72, 166.98 59.74 2.14 68



Historial Predications of SNOs between NOAA-20 and NOAA-19
